Weather in Pen'ki

Russia / Ivanovo Oblast     56°49′16″N   42°13′13″E
В апреле 2022 года жителям России запретили посещать сайт meteo.paraplan.net по решению Генеральной прокуратуры. Аудитория сайта уменьшилась в 10 раз. Владельцы сайта не видят смысла в поддержке погодного сервера в таких условиях. Сайт будет закрыт в октябре.
temp.,
°C
wind,
m/s
gust,
m/s
humid.,
%
clouds,
%
prec.,
mm/h
press.,
hPa
HPBL,
m
3 october, mon
mon300:00+10ene3490100 0.0 100685
03:00+12e41195100 0.0 1004287
06:00+12e4998100 0.1 1003236
09:00+15ese51488100 0.5 1003662
12:00+18se71366100 0.0 10031036
15:00+18se81660100 0.0 10031582
18:00+14sse71379100 0.2 10061119
21:00+11s61273100 0.4 10091050
4 october, tue
tue400:00+9sse5137813 0.0 1011654
03:00+9se513814 0.0 1012555
06:00+9sse5138355 0.0 1013505
09:00+11sse61372100 0.0 1014725
12:00+15sse7145778 0.0 10141628
15:00+16sse6125653 0.0 10141735
18:00+13sse61374100 0.5 1014785
21:00+11se5128341 1.1 1014470
5 october, wed
wed500:00+11sse6128898 1.8 1014834
03:00+11sse51293100 2.9 1013675
06:00+10sse41191100 0.9 1013674
09:00+10s51179100 1.8 10131176
12:00+9s5987100 0.6 10131295
15:00+9s4989100 1.1 1013637
18:00+8wsw3693100 1.4 1013464
21:00+7sw3689100 3.0 1013883
6 october, thu
thu600:00+6sw3593100 1.1 1013860
03:00+6w3692100 1.8 1014761
06:00+6w379083 0.3 1015404
09:00+7w358318 0.3 1015488
12:00+9w446987 0.1 10151136
15:00+10wsw356353 0.3 10141182
18:00+6ssw37845 0.0 1015142
21:00+5ssw389294 0.0 1013219
7 october, fri
fri700:00+7ssw41195100 0.8 1011490
03:00+9wsw41298100 1.4 1010563
06:00+10w511866 0.2 1011579
09:00+9w51183100 0.2 10121040
12:00+10w61176100 0.0 10131106
15:00+10w6137997 0.1 10131135
18:00+10w7137526 0.1 10141008
21:00+9w614800 0.2 1016885